Probability
0 0 0 0 0 0 0 0 0 0 0 0 0 0 0 0 0 0 0 0 0 0 0 0 0 0 0 0 0 0 0 0 0 0 0 0 0 0
0 0 0 0 0 0 0 0 0 0 0 0 0 0 0 0 0 0 0 0 0 0 0 0 0 0 0 0 0 0 0 0 0 0 0 0 0 0
0 0 0 0 0 0 0 0 0 0 0 0 0 0 0 0 0 0 0 0 0 0 0 0 0 0 0 0 0 0 0 0 0 0 0 0 0 0
0 0 0 0 0 0 0 0 0 0 0 0 0 0 0 0 0 0 0 0 0 0 0 0 0 0 0 0 0 0 0 0 0 0 0 0 0 0
0 0 0 0 0 0 0 0 0 0 0 0 0 0 0 0 0 0 0 0 0 0 0 0 0 0 0 0 0 0 0 0 0 0 0 0 0 0
0 0 0 0 0 0 0 0 0 0 0 0 0 0 0 0 0 0 0 0 0 0 0 0 0 0 0 0 0 0 0 0 0 0 0 0 0 0
0 0 0 0 0 0 0 0 0 0 0 0 0 0 0 0 0 0 0 0 0 0 0 0 0 0 0 0 0 0 0 0 0 0 0 0 0 0
0 0 0 0 0 0 0 0 0 0 0 0 0 0 0 0 0 0 0 0 0 0 0 0 0 0 0 0 0 0 0 0 0 0 0 0 0 0
0 0 0 0 0 0 0 0 0 0 0 0 0 0 0 0 0 0 0 0 0 0 0 0 0 0 0 0 0 0 0 0 0 0 0 0 0 0
0 0 0 0 0 0 0 0 0 0 0 0 0 0 0 0 0 0 0 0 0 0 0 0 0 0 0 0 0 0 0 0 0 0 0 0 0 0
0 0 0 0 0 0 0 0 0 0 0 0 0 0 0 0 0 0 0 0 0 0 0 0 0 0 0 0 0 0 0 0 0 0 0 0 0 0
0 0 0 0 0 0 0 0 0 0 0 0 0 0 0 0 0 0 0 0 0 0 0 0 0 0 0 0 0 0 0 0 0 0 0 0 0 0
0 0 0 0 0 0 0 0 0 0 0 0 0 0 0 0 0 0 0 0 0 0 0 0 0 0 0 0 0 0 0 0 0 0 0 0 0 0
0 0 0 0 0 0 0 0 0 0 0 0 0 0 0 0 0 0 0 0 0 0 0 0 0 0 0 0 0 0 0 0 0 0 0 0 0 0
0 0 0 0 0 0 0 0 0 0 0 0 0 0 0 0 0 0 0 0 0 0 0 0 0 0 0 0 0 0 0 0 0 0 0 0 0 0
0 0 0 0 0 0 0 0 0 0 0 0 0 0 0 0 0 0 0 0 0 0 0 0 0 0 0 0 0 0 0 0 0 0 0 0 0 0
0 0 0 0 0 0 0 0 0 0 0 0 0 0 0 0 0 0 0 0 0 0 0 0 0 0 0 0 0 0 0 0 0 0 0 0 0 0
0 0 0 0 0 0 0 0 0 0 0 0 0 0 0 0 0 0 0 0 0 0 0 0 0 0 0 0 0 0 0 0 0 0 0 0 0 0
0 0 0 0 0 0 0 0 0 0 0 0 0 0 0 0 0 0 0 0 0 0 0 0 0 0 0 0 0 0 0 0 0 0 0 0 0 0
0 0 0 0 0 0 0 0 0 0 0 0 0 0 0 0 0 0 0 0 0 0 0 0 0 0 0 0 0 0 0 0 0 0 0 0 0 0
0 0 0 0 0 0 0 0 0 0 0 0 0 0 0 0 0 0 0 0 0 0 0 0 0 0 0 0 0 0 0 0 0 0 0 0 0 0
0 0 0 0 0 0 0 0 0 0 0 0 0 0 0 0 0 0 0 0 0 0 0 0 0 0 0 0 0 0 0 0 0 0 0 0 0 0
0 0 0 0 0 0 0 0 0 0 0 0 0 0 0 0 0 0 0 0 0 0 0 0 0 0 0 0 0 0 0 0 0 0 0 0 0 0
Wind_Speed
3 2 2 2 1 1 1 2 3 3 3 3 2 2 1 1 2 2 2 4 4 5 5 4 4 4 4 4 4 4 4 4 4 4 4 5 6 6
2 3 2 2 2 2 2 2 2 3 3 2 2 2 2 1 3 2 3 4 5 5 5 4 5 5 4 5 5 5 5 5 5 5 6 6 7 7
3 3 3 2 2 2 2 2 2 2 3 2 1 1 2 2 2 2 2 3 3 5 6 6 6 6 6 6 6 6 5 5 5 6 7 7 8 8
4 4 4 3 3 3 3 3 3 2 2 3 1 1 2 3 2 2 2 2 3 5 6 7 7 7 7 7 6 6 6 6 6 6 7 7 8 8
5 5 5 4 4 3 4 4 3 2 2 2 2 1 1 2 2 2 2 2 3 4 6 7 7 8 8 7 6 6 6 6 6 7 7 7 8 8
6 6 6 6 6 5 5 5 4 3 2 2 2 2 2 2 2 2 2 2 3 2 4 5 6 7 8 7 6 6 6 7 7 7 7 7 7 7
5 6 6 7 7 6 5 5 5 4 3 3 3 2 2 2 3 2 3 2 3 2 2 3 3 3 4 6 6 6 6 6 7 6 6 6 6 6
5 5 5 6 8 9 9 8 7 6 6 5 4 5 5 4 2 3 2 2 3 2 2 3 2 3 3 3 5 6 6 6 6 6 7 7 6 6
5 5 4 5 7 5 7 8 8 9 9 7 6 6 5 5 4 4 4 4 4 2 2 4 2 3 3 3 5 6 6 6 6 7 7 7 7 7
6 6 6 5 6 6 5 4 5 6 7 5 5 5 4 4 5 5 4 3 2 2 2 3 3 3 2 2 5 5 5 6 6 7 7 7 7 7
5 5 5 5 8 8 5 5 5 4 5 6 6 5 6 6 5 2 2 2 3 3 2 2 2 2 2 2 3 5 5 6 6 6 7 7 7 5
4 5 7 7 8 9 6 6 6 5 3 3 4 4 4 5 6 5 4 4 3 3 2 2 2 0 2 2 1 2 3 5 6 6 6 6 6 2
3 3 4 7 8 9 7 6 7 5 4 4 3 3 2 2 3 3 3 4 4 3 2 2 2 1 2 2 2 2 1 2 2 4 5 6 6 3
3 3 3 6 7 7 5 5 6 5 3 3 3 3 2 2 1 1 1 1 2 3 2 2 2 2 2 2 2 2 2 1 1 2 2 4 4 5
3 4 5 6 5 4 4 4 4 3 3 3 3 3 2 2 1 1 1 1 1 1 1 2 2 2 2 2 2 1 2 2 1 1 1 1 2 2
2 3 4 4 3 2 2 2 2 2 3 3 2 2 2 2 1 1 1 1 1 1 1 0 1 2 2 2 2 2 2 2 1 1 1 1 2 2
3 2 2 2 2 1 1 1 1 1 2 2 2 2 2 2 1 1 1 1 2 2 1 1 1 1 1 1 2 2 1 1 1 1 1 2 2 2
3 3 2 2 2 2 2 1 2 2 2 2 2 2 2 2 2 1 1 2 2 2 2 1 1 0 1 2 1 2 1 1 1 1 1 1 2 2
3 2 2 2 2 2 2 2 2 2 2 2 2 2 2 2 2 2 1 1 1 1 1 1 1 2 2 2 2 1 2 1 1 1 1 1 3 3
2 2 2 2 2 2 2 2 2 1 1 2 2 2 2 2 2 2 2 2 2 1 1 1 1 2 3 3 2 2 3 2 2 2 2 2 2 4
1 1 2 2 2 2 2 2 2 2 2 2 2 2 2 2 2 2 2 2 2 1 2 2 2 1 1 1 0 2 2 3 3 2 2 1 2 2
2 2 2 2 2 2 2 2 2 2 2 2 2 2 2 2 2 2 2 2 1 1 1 1 0 1 1 2 2 2 2 3 3 5 5 4 2 2
2 2 2 2 2 2 2 2 2 2 2 2 2 1 1 1 1 1 1 1 1 1 1 0 0 0 1 2 2 2 3 3 2 2 3 5 7 8
Wind_Direction
189 189 194 197 181 183 169 167 171 210 237 219 205 218 208 195 219 226 232 242 252 265 270 274 273 275 279 279 280 283 285 289 291 292 294 292 296 298
195 189 206 201 184 191 193 200 199 197 231 230 220 203 192 222 235 239 242 247 249 257 261 264 266 265 266 274 277 277 280 283 279 282 287 290 293 294
198 195 207 206 195 191 190 197 213 201 227 262 265 185 182 209 236 246 249 239 238 245 253 256 258 260 261 263 270 273 274 277 277 278 282 286 289 291
201 198 210 209 208 200 195 204 212 212 204 231 250 230 218 209 217 235 251 250 241 246 251 255 256 257 258 260 260 267 271 272 277 276 277 281 283 286
204 204 208 203 211 209 201 202 208 212 207 212 232 235 245 215 207 255 258 264 260 251 251 252 253 254 256 257 256 260 267 269 271 273 273 276 281 283
209 206 206 205 209 207 208 204 198 199 201 212 222 221 233 228 191 216 257 254 261 265 254 253 254 256 255 254 253 255 259 264 263 266 272 274 276 280
210 208 209 211 214 212 218 206 196 198 200 214 221 217 216 209 213 213 234 256 267 258 260 259 255 252 248 250 249 251 259 261 260 263 272 278 279 283
213 215 214 210 214 219 229 225 211 205 206 211 223 221 224 217 209 212 216 234 260 235 238 263 243 247 247 238 254 261 256 258 261 263 269 274 278 283
211 212 219 219 218 213 227 230 225 223 217 210 218 224 218 210 200 212 219 229 243 231 235 264 249 250 251 253 263 262 255 256 259 263 266 268 274 280
213 209 210 213 215 210 210 218 223 225 225 220 218 222 220 208 205 212 217 234 263 236 218 251 249 251 260 257 263 263 262 260 262 265 270 270 272 275
215 209 207 209 221 217 207 213 225 231 229 227 231 233 229 223 212 189 196 209 251 244 215 221 241 268 269 255 256 267 279 275 269 270 276 277 278 281
216 210 215 219 221 218 208 206 220 217 201 218 231 236 227 220 218 205 198 208 231 242 208 200 224 223 282 272 256 267 270 273 274 280 284 282 283 269
218 210 212 219 223 223 222 214 222 212 196 202 208 208 204 205 212 214 204 203 214 234 204 184 204 205 220 270 285 273 261 270 271 275 282 285 285 283
217 211 207 212 216 216 217 214 215 210 186 191 202 202 198 203 202 198 195 205 220 228 205 189 204 205 211 246 269 291 292 279 271 280 278 287 284 293
211 213 213 207 206 204 204 206 204 192 183 192 201 203 195 178 148 124 92 72 14 317 238 211 205 201 203 224 249 270 297 297 278 280 302 297 278 274
200 199 205 197 191 178 182 200 201 187 181 187 181 168 146 149 162 172 188 188 216 285 305 234 204 198 215 224 221 246 252 262 290 309 319 310 298 280
162 154 156 154 161 158 162 168 169 167 172 166 167 161 162 167 179 188 201 210 218 228 248 262 205 165 209 217 228 233 244 263 268 283 319 300 290 281
155 156 166 170 171 174 179 182 188 185 177 169 164 167 175 181 187 190 196 205 219 223 220 216 191 122 15 341 258 229 230 250 272 281 270 274 286 293
152 158 166 171 175 177 181 183 188 188 174 168 166 166 173 182 184 192 194 201 221 228 229 206 189 180 195 257 297 245 227 250 264 262 256 250 263 281
147 156 164 165 167 168 173 174 167 166 169 169 165 166 172 177 181 191 196 192 203 220 229 215 205 199 204 217 239 283 264 245 238 243 258 278 275 286
153 154 156 157 162 168 173 170 163 171 173 170 177 180 179 174 180 192 195 207 209 208 220 233 238 234 171 108 263 288 290 271 271 261 250 276 293 292
153 160 161 157 158 167 165 157 156 166 169 165 171 175 176 173 181 191 193 198 209 216 237 257 257 199 178 192 226 260 284 298 295 295 282 266 243 243
158 157 154 154 159 167 158 159 162 168 170 161 163 169 165 165 172 178 181 182 182 194 203 236 291 244 219 210 220 247 266 277 289 301 293 291 286 283